{"data":{"norad_id":59121,"intl_designator":"2024-043Z","name":"LYNK TOWER 5","alt_names":[],"object_type":"PAYLOAD","status":"ACTIVE","operator":null,"country":"US","launch_date":"2024-03-04","launch_site_code":"AFWTR","launch_vehicle":null,"mission":null,"orbit_class":"UNKNOWN","rcs_meters":null,"size_class":null,"mass_kg":null,"dimensions":null,"purposes":[],"wikipedia_slug":null,"has_3d_model":false,"image_url":null,"decayed_at":null,"tle_current":{"epoch":"2026-05-25T02:48:36.955296Z","epoch_age_seconds":62248,"freshness":"FRESH","line1":"1 59121U 24043Z   26145.11709439  .00004885  00000+0  16849-3 0  9998","line2":"2 59121  97.5602 282.1875 0010169 336.2871  23.7900 15.30431687123510","mean_motion":15.30431687,"eccentricity":0.0010169,"inclination_deg":97.5602,"raan_deg":282.1875,"arg_perigee_deg":336.2871,"mean_anomaly_deg":23.79,"bstar":0.00016849,"rev_number":12351,"period_min":94.091099408869,"perigee_km":467.5549107305,"apogee_km":481.49185141352,"semimajor_km":6852.660381072,"source":"CELESTRAK","updated_at":"2026-05-25T13:38:01.193381Z"}}}